Tracking 22780 objects as of 11-Apr-2021
HD Live streaming from Space Station
objects crossing your sky now

STARLINK-1876

Track STARLINK-1876 now!
10-day predictions
STARLINK-1876 is classified as:


NORAD ID: 47161
Int'l Code: 2020-088AR
Perigee: 553.0 km
Apogee: 555.7 km
Inclination: 53.1 °
Period: 95.6 minutes
Semi major axis: 6925 km
RCS: Unknown
Launch date: November 25, 2020
Source: United States (US)
Launch site: AIR FORCE EASTERN TEST RANGE (AFETR)
aabbcc
Your satellite tracking list
Your tracking list is empty




NASA's NSSDC Master Catalog

Two Line Element Set (TLE):
1 47161U 20088AR  21101.00002315 -.00022092  00000-0 -14688-2 0  9999
2 47161  53.0553  63.8074 0001969  64.1557 190.0880 15.06398900  1764
Source of the keplerian elements: AFSPC